sat.trackr.live / text

‹ back to catalog

BANE

NORAD 58465 · 2023-185D

PAYLOAD ACTIVE UNKNOWN

§ Identity

Operator
Country
US
Launch date
2023-12-01
Launch site
AFWTR
Launch vehicle
Mass (kg)
RCS (m²)

External: N2YO · Heavens-Above · Gunter

§ Orbital elements

Epoch: 2026-05-25T05:47:41.747424Z

Period
90.36 min
Inclination
97.3358°
Eccentricity
0.0006962
Mean motion
15.93598542 rev/d
Perigee alt
287.6 km
Apogee alt
296.9 km
Semi-major
6,670.4 km
B*
9.5314e-4
RAAN
232.6007°
Arg perigee
217.6194°
Mean anomaly
142.4595°
Rev number
13,917

§ Raw data

BANE1 58465U 23185D   26145.24145541  .00340888  46889-4  95314-3 0  99962 58465  97.3358 232.6007 0006962 217.6194 142.4595 15.93598542139170

JSON: /api/v1/satellites/58465 · /tle

For live sub-satellite position, see the globe view (requires WebGL).

§ Visibility from observer

Set your observer location to see the next 7 days of passes ≥ 10°. The values pass through the URL so the page stays shareable.

No JS? Fill the form by hand. The geolocation button needs JavaScript.

§ Radio — SatNOGS DB

ModeDescriptionDownlinkUplink
BPSK S-band telemetry 2.258 GHz
BPSK S-band telemetry 2.244 GHz

2 transmitters · refreshed weekly from db.satnogs.org